Location: Oshawa
(43.9000°N, 78.8670°W)
Time: 00:22:57
(UTC-04:00)

SPOT 5 - Visible Passes

Search period start: 02 October 2014 00:00
Search period end: 12 October 2014 00:00
Orbit: 824 x 826 km, 98.5° (Epoch: 01 October)

Date Brightness Start Highest point End Pass type
(mag) Time Alt. Az. Time Alt. Az. Time Alt. Az.
02 Oct 4.6 21:49:48 27° N 21:49:48 27° N 21:52:23 10° N visible
02 Oct 5.9 23:31:16 12° NW 23:31:16 12° NW 23:31:53 10° NW visible
03 Oct 4.7 21:30:21 24° NNE 21:30:21 24° NNE 21:32:48 10° N visible
03 Oct 5.7 23:11:49 16° NW 23:11:49 16° NW 23:13:01 10° NNW visible
04 Oct 4.8 21:10:54 19° NNE 21:10:54 19° NNE 21:13:04 10° N visible
04 Oct 5.5 22:52:22 19° NNW 22:52:22 19° NNW 22:53:55 10° NNW visible
05 Oct 5.0 20:51:27 15° NE 20:51:27 15° NE 20:53:08 10° NNE visible
05 Oct 5.2 22:32:55 22° NNW 22:32:55 22° NNW 22:34:42 10° NNW visible
06 Oct 5.2 20:31:59 11° NE 20:31:59 11° NE 20:32:42 10° NNE visible
06 Oct 5.1 22:13:27 23° N 22:13:27 23° N 22:15:21 10° N visible
07 Oct 5.0 21:54:00 22° N 21:54:00 22° N 21:55:54 10° N visible
08 Oct 5.0 21:34:33 20° NNE 21:34:33 20° NNE 21:36:20 10° N visible
08 Oct 6.0 23:16:01 12° NW 23:16:01 12° NW 23:16:25 10° NNW visible
09 Oct 5.1 21:15:05 17° NNE 21:15:05 17° NNE 21:16:39 10° N visible
09 Oct 5.8 22:56:33 14° NNW 22:56:33 14° NNW 22:57:22 10° NNW visible
10 Oct 5.2 20:55:37 14° NNE 20:55:37 14° NNE 20:56:45 10° NNE visible
10 Oct 5.6 22:37:05 16° NNW 22:37:05 16° NNW 22:38:10 10° NNW visible
11 Oct 5.3 20:36:10 11° NNE 20:36:10 11° NNE 20:36:28 10° NNE visible
11 Oct 5.4 22:17:38 17° NNW 22:17:38 17° NNW 22:18:50 10° NNW visible
